Location: Fiume Sitzerri
(39.6833°N, 8.5667°E)
Time: 04:07:13
(UTC+00:00)

Daily predictions for brighter satellites

Satellite Brightness Start Highest point End
(mag) Time Altitude Azimuth Time Altitude Azimuth Time Altitude Azimuth
ADEOS Rocket 4.3 02:40:17 10° SE 02:45:06 32° ENE 02:49:56 10° N
DELTA 2 R/B (1) 4.4 02:59:13 48° E 02:59:13 48° E 03:03:13 10° E
NOSS 3-2 (C) 3.8 02:59:48 54° ESE 02:59:48 54° ESE 03:05:41 10° NE
CZ-3 R/B 4.3 02:50:44 31° SW 03:03:35 47° S 03:13:30 10° ESE
Lacrosse 5 rocket 4.0 03:09:42 12° ESE 03:09:51 12° ESE 03:11:20 10° E
Cosmos 2344 3.3 03:15:53 67° W 03:16:31 71° NW 03:24:19 10° NNE
CZ-4B R/B 4.4 03:16:28 10° ESE 03:18:40 16° ENE 03:20:54 10° NNE
CENTAUR R/B 2.4 03:20:44 66° S 03:21:35 78° ESE 03:28:21 10° NE
GP-B 4.4 03:25:03 32° NNE 03:25:03 32° NNE 03:27:34 10° N
COSMOS 2406 4.5 03:18:34 10° S 03:23:46 39° ESE 03:28:59 10° NE
CZ-2C R/B 3.8 03:27:41 11° SE 03:27:41 11° SE 03:27:55 10° SE
Cosmos 1269 Rocket 4.1 03:40:20 27° S 03:43:17 79° ESE 03:48:37 10° NNE
Cosmos 1025 Rocket 3.8 03:45:53 39° N 03:45:53 39° N 03:48:47 10° N
USA 238 DEB 3.8 03:45:16 47° W 03:46:20 52° NW 03:53:01 10° NNE
USA 238 3.7 03:45:20 48° W 03:46:25 52° NW 03:53:07 10° NNE
Cosmos 292 Rocket 4.1 03:42:25 13° NNW 03:46:44 67° ENE 03:51:33 10° SSE
Cosmos 1110 Rocket 3.8 03:45:23 34° NNW 03:47:40 79° WSW 03:52:49 10° SSE
PAYLOAD A 4.1 03:44:00 10° N 03:48:48 55° WNW 03:48:48 55° WNW
Cosmos 2279 Rocket 3.8 03:42:55 10° N 03:49:08 82° W 03:55:18 10° S
Cosmos 1634 Rocket 4.1 03:45:00 10° NNW 03:51:02 48° W 03:57:01 10° SSW
NOSS 3-2 (A) 3.8 03:51:41 40° NW 03:52:03 40° NW 03:58:04 10° NNE
Geosat 3.9 03:51:00 10° SSE 03:56:01 89° ENE 04:00:32 13° NNW
Lacrosse 4 Rocket 1.2 03:56:56 61° SSW 03:57:36 89° WNW 04:01:40 10° NNE
H-2A R/B 3.9 03:55:49 10° S 03:57:08 18° SSW 03:57:08 18° SSW
FENGYUN 3A 3.8 03:57:21 10° NNE 04:02:49 77° ESE 04:08:14 10° S
CZ-2C R/B 2.7 04:00:41 10° N 04:05:24 42° WNW 04:05:45 41° W
ISS -2.7 04:04:38 32° S 04:05:38 41° SE 04:08:49 10° ENE
ATLAS 3B R/B 3.5 03:59:25 10° S 04:05:42 49° ESE 04:12:01 10° NE
Cosmos 1953 2.6 04:08:14 45° SW 04:08:14 45° SW 04:11:29 10° S
SL-14 R/B 4.4 04:08:30 10° SSE 04:12:15 45° E 04:16:05 10° NNE
Cosmos 1536 Rocket 3.8 04:11:26 32° SW 04:13:02 46° W 04:17:22 10° N
Cosmos 1908 3.1 04:10:34 10° N 04:14:29 81° W 04:18:23 10° S
KORONAS-FOTON 4.0 04:15:51 27° SW 04:17:37 49° W 04:21:26 10° N
CZ-4B R/B 3.8 04:18:31 10° NNE 04:22:25 50° E 04:26:29 10° S
deb Chang Zheng 4 3.4 04:18:37 10° N 04:22:51 71° WNW 04:27:04 10° SSW
ALOS 2.2 04:18:32 10° N 04:23:11 67° WNW 04:27:48 10° SSW
ERS-2 2.5 04:24:19 10° S 04:27:45 40° W 04:30:26 15° NW
ADEOS Rocket 3.4 04:25:49 10° SSW 04:30:38 30° W 04:35:27 10° NW
Meteor 1-24 Rocket 4.0 04:26:48 10° S 04:32:16 70° E 04:37:58 10° NNE
Cosmos 1689 Rocket 2.4 04:33:58 10° SSE 04:36:52 64° ENE 04:39:47 10° N
Cosmos 1484 Rocket 3.2 04:34:20 10° N 04:37:56 38° WNW 04:41:28 10° SW
SKYMED 2 3.7 04:35:20 10° SSE 04:39:39 78° ENE 04:44:01 10° N
Cosmos 1300 3.3 04:36:29 10° N 04:40:16 60° E 04:44:03 10° SSE
Cosmos 1833 Rocket 2.7 04:35:42 10° SW 04:41:16 62° WNW 04:46:53 10° NNE
SAR-Lupe-4 3.6 04:38:10 10° S 04:41:41 57° W 04:45:13 10° NNW
Cosmos 2251 Rocket 3.9 04:36:50 10° S 04:42:10 72° ESE 04:47:31 10° NNE
DELTA 2 R/B (1) 3.8 04:40:00 19° W 04:43:58 59° SSW 04:49:28 10° ESE
Meteor 2-5 Rocket 3.7 04:41:50 10° SSW 04:47:25 66° W 04:53:11 10° N
Cosmos 2369 3.9 04:42:40 10° NNW 04:48:21 75° ENE 04:53:59 10° SSE
Lacrosse 5 rocket 1.1 04:45:23 13° WSW 04:48:27 59° NW 04:52:11 10° NE
CZ-4B R/B 4.3 04:44:55 10° N 04:48:55 41° WNW 04:52:45 10° SW
Cosmos 1092 Rocket 3.9 04:43:16 10° S 04:49:24 80° W 04:55:39 10° N
Cosmos 1674 4.1 04:49:04 17° W 04:50:07 19° WNW 04:52:52 10° NNW
CZ-4B R/B 2.4 04:47:44 10° SSW 04:50:41 26° W 04:53:40 10° NW
NOSS 3-2 (C) 4.4 04:47:17 16° W 04:50:57 28° NW 04:56:26 10° NNE
Aureole 3 4.3 04:48:54 10° N 04:52:50 57° E 04:57:48 10° SSE
ARGOS Delta rocket 4.2 04:49:53 10° N 04:55:09 58° WNW 05:00:30 10° SSW
H-2A R/B 3.7 04:51:38 10° NNE 04:55:23 52° E 04:59:06 10° S
Cosmos 2082 Rocket 2.2 04:49:48 10° SSW 04:55:24 84° WNW 05:01:03 10° NNE
H-2A R/B 3.9 04:52:16 10° NNE 04:56:29 44° E 05:00:33 10° S
Nadezhda 4 Rocket 4.3 04:52:25 10° SW 04:58:07 40° WNW 05:03:51 10° N
Meteor 1-31 Rocket 3.7 04:57:46 10° N 05:01:10 28° WNW 05:04:33 10° SW
Abrixas rocket 4.1 05:01:14 10° NNW 05:03:09 16° N 05:05:05 10° NE
CZ-2C R/B 3.2 05:03:16 10° SW 05:04:07 11° SSW 05:04:59 10° S
Cosmos 1626 3.1 05:04:22 10° SW 05:07:30 26° WNW 05:10:38 10° NNW
COSMOS 2406 4.0 05:03:13 10° WSW 05:08:07 30° WNW 05:13:03 10° N
PSLV R/B 4.1 05:04:37 10° NNE 05:08:45 78° ESE 05:12:51 10° S
CENTAUR R/B 3.8 05:08:13 10° W 05:13:08 24° NW 05:18:44 10° NNE
Cosmos 1726 Rocket 3.7 05:09:20 10° NNW 05:13:40 54° W 05:18:00 10° S
Cosmos 1461 3.4 05:10:00 10° SW 05:14:20 49° NW 05:18:53 10° NNE
MOS 1 Rocket 3.9 05:15:21 10° SSE 05:19:37 55° ENE 05:23:48 10° N
